Flag for U.S.A. Weather past 2 weeks in Stamford, Connecticut, U.S.A.

Now
81 °F

Passing clouds.


Feels Like: 81 °F
Forecast: 65 / 82 °F
Wind: 7 mph from West

Location: Westchester County Airport

Current Time: Aug 4, 2015 at 8:26:58 PM

Latest Report: Aug 4, 2015 at 7:56 PM


Visibility: 10 mi

Pressure: 29.85 "Hg

Humidity: 41%

Dew point: 55 °F

Location of StamfordLocation

Historic Weather in Stamford — Graph

°F

Stamford temperature yesterday

Maximum temperature yesterday: 88 °F (at 2:56 PM)
Minimum temperature yesterday: 68 °F (at 12:56 AM)
Average temperature yesterday: 78 °F

Past Weeks' High & Low Weather Summary

 TemperatureHumidityPressure
High91 °F (Jul 29, 2:56 PM)100% (Jul 30, 5:00 PM)30.02 "Hg (Jul 30, 5:00 PM)
Low61 °F (Jul 23, 5:56 AM)30% (Aug 4, 3:56 PM)29.57 "Hg (Jul 21, 5:56 PM)
Average76 °F65%29.86 "Hg
* Reported Jul 20 6:56 PM — Aug 4 6:56 PM, Stamford, Weather by CustomWeather, © 2015

Note: Actual official high and low records may vary slightly from our data, if they occured in-between our weather recording intervals... More about our weather records

Advertising

Stamford weather history for previous 24 hours

 ConditionsComfort  
Time TempWeatherWind HumidityBarometerVisibility
6:56 PM
Tue, Aug 4
84 °FPassing clouds.6 mph37%29.83 "Hg10 mi
5:56 PM86 °FPassing clouds.12 mph33%29.83 "Hg10 mi
4:56 PM87 °FScattered clouds.10 mph35%29.82 "Hg10 mi
3:56 PM87 °FPassing clouds.8 mph30%29.81 "Hg10 mi
2:56 PM88 °FPassing clouds.12 mph31%29.82 "Hg10 mi
1:56 PM86 °FScattered clouds.8 mph39%29.82 "Hg10 mi
12:56 PM86 °FScattered clouds.12 mph45%29.82 "Hg10 mi
11:56 AM84 °FPassing clouds.6 mph51%29.83 "Hg10 mi
10:56 AM81 °FSunny.9 mph56%29.84 "Hg10 mi
9:56 AM78 °FSunny.7 mph64%29.83 "Hg10 mi
8:56 AM75 °FSunny.5 mph74%29.84 "Hg10 mi
7:56 AM71 °FSunny.3 mph84%29.84 "Hg10 mi
6:56 AM70 °FPartly sunny.No wind87%29.83 "Hg10 mi
5:56 AM70 °FPassing clouds.3 mph90%29.81 "Hg10 mi
4:56 AM71 °FThunderstorms. Passing clouds.6 mph87%29.83 "Hg10 mi
3:56 AM74 °FLight rain. Overcast.6 mph79%29.82 "Hg6 mi
2:56 AM71 °FClear.3 mph81%29.79 "Hg10 mi
1:56 AM72 °FPartly cloudy.No wind76%29.81 "Hg10 mi
12:56 AM73 °FClear.No wind71%29.79 "Hg10 mi
11:56 PM
Mon, Aug 3
76 °FClear.No wind60%29.79 "Hg10 mi
10:56 PM75 °FClear.3 mph74%29.80 "Hg10 mi
9:56 PM75 °FClear.No wind79%29.80 "Hg10 mi
8:56 PM77 °FPassing clouds.3 mph74%29.77 "Hg10 mi
Weather by CustomWeather, © 2015

See weather overviewHow to use our weather pages